Temp
56 57 57 57 57 57 57 57 57 57 57 57 58 58 59 59 58 60 61 62 59 63 70 72 75 72 73 72 70 74 71 73 74 68 69 66 64 65 65 68 65 64 63 64 64 59 55 75 72 66 71 75 76 75
56 56 56 57 57 57 57 57 57 57 57 57 57 58 58 58 58 58 56 62 61 52 64 70 72 75 75 75 73 73 73 74 79 73 73 74 66 68 66 60 70 63 69 67 66 66 71 76 74 77 78 76 75 75
55 55 56 56 56 56 56 57 57 57 57 57 57 58 58 58 58 58 59 59 56 54 66 69 71 79 83 80 82 69 75 77 77 78 79 77 66 74 65 66 68 71 72 69 66 72 72 75 77 78 79 78 79 79
55 55 55 56 56 56 56 56 56 56 56 57 57 58 58 57 57 58 56 60 57 58 59 71 81 75 84 84 81 80 79 78 81 78 77 75 70 74 72 71 69 73 70 70 69 71 72 74 77 78 78 79 78 78
55 55 55 55 55 56 56 56 56 56 56 56 56 57 57 57 57 57 57 59 61 56 54 65 75 81 83 82 79 79 79 77 76 75 75 73 77 73 76 73 71 74 72 69 69 75 74 75 78 80 77 76 77 76
54 55 55 55 55 55 55 55 56 56 56 56 56 56 56 56 55 57 51 62 61 59 58 60 77 74 77 79 77 76 78 77 78 78 78 78 73 73 69 65 74 78 79 80 76 79 80 79 81 81 79 78 79 78
54 55 55 55 55 55 55 55 55 55 55 55 55 56 55 55 55 55 53 59 57 60 58 60 69 74 76 77 77 77 79 78 78 79 76 78 74 71 70 63 74 77 78 78 78 77 74 77 78 81 81 80 75 80
54 54 54 55 55 55 55 55 55 55 55 55 55 55 54 54 54 56 66 56 58 56 63 58 66 69 76 74 71 79 75 76 76 79 76 74 71 72 60 70 74 77 78 77 77 78 81 82 81 81 82 80 77 77
53 54 54 54 55 55 55 55 55 55 55 55 55 55 54 53 52 62 59 57 63 60 58 62 61 63 76 75 76 75 78 70 75 72 73 73 66 49 67 71 74 75 74 77 79 78 78 78 78 79 79 78 77 77
53 53 53 54 54 54 54 55 55 55 55 55 55 54 49 60 57 59 57 59 58 63 61 58 70 64 72 72 71 72 75 70 65 71 72 67 66 71 74 77 77 78 78 80 74 71 74 75 77 78 78 79 79 79
53 53 53 53 54 54 54 55 55 55 54 56 52 50 59 58 60 62 58 59 61 58 64 65 67 63 75 67 68 74 68 70 61 68 66 65 65 72 77 76 77 79 80 80 80 80 80 79 77 78 78 79 79 80
53 53 53 53 54 54 54 54 54 57 58 55 54 51 55 52 52 54 57 61 59 59 66 63 66 69 71 72 70 69 66 67 60 70 65 60 71 74 76 76 77 77 78 79 80 79 80 80 80 79 78 78 79 79
53 53 53 53 53 54 54 54 54 54 54 53 51 49 53 50 41 47 49 56 59 65 68 67 63 68 65 66 67 66 61 61 72 63 60 67 74 76 75 75 76 77 77 78 78 79 79 78 79 79 78 79 79 78
53 53 53 53 53 54 54 54 54 53 51 47 50 41 51 51 55 57 61 64 67 70 68 69 67 65 69 61 66 59 64 66 58 56 60 71 74 75 77 77 77 75 75 77 77 77 77 76 76 77 79 78 77 76
53 53 53 53 53 54 54 54 54 58 51 47 50 45 54 64 65 66 69 67 68 73 67 64 66 67 62 60 63 59 54 53 59 61 71 76 74 74 74 75 76 76 76 77 78 77 77 77 77 76 78 79 78 76
53 52 54 54 54 54 53 54 57 59 53 50 51 51 59 58 60 63 64 62 71 71 67 66 63 60 60 62 57 57 56 53 61 71 76 77 72 73 72 75 77 78 77 78 78 78 78 77 77 77 78 78 78 77
52 53 54 54 54 53 53 56 56 52 51 51 49 61 57 57 58 64 65 60 68 61 57 58 55 57 68 60 58 64 61 67 71 77 77 71 70 70 73 75 76 76 76 77 77 77 77 78 79 77 74 75 78 76
52 59 54 53 54 53 54 55 51 50 46 51 49 59 60 62 61 61 64 63 62 62 60 59 61 56 57 57 60 68 72 75 75 74 74 73 71 71 74 73 74 75 75 76 76 77 77 76 75 76 75 77 77 76
57 55 53 53 54 53 50 49 53 45 48 57 58 61 61 62 64 64 65 65 65 63 59 59 57 58 59 66 67 70 73 73 72 73 74 73 71 71 71 72 73 74 75 75 75 78 79 77 79 81 82 80 78 80
52 53 53 53 53 50 47 50 56 53 53 57 60 58 60 60 63 64 63 63 63 57 55 56 60 66 67 70 72 71 71 71 72 72 74 74 75 71 71 74 76 75 76 76 77 62 79 78 80 80 81 80 79 78
51 52 53 53 51 50 50 48 47 49 55 52 56 57 51 55 57 59 61 65 60 58 58 64 66 69 71 71 71 71 70 71 71 70 69 72 71 76 74 75 76 79 79 79 79 76 65 79 81 83 79 77 78 77
51 53 51 54 49 50 51 60 56 57 54 55 53 54 49 49 53 58 59 57 59 63 66 67 67 68 67 67 68 68 69 67 67 68 56 61 73 75 76 78 78 78 79 78 79 79 77 77 75 78 76 77 67 75
52 52 51 51 49 48 49 59 50 55 48 48 53 50 51 57 61 64 58 63 66 70 69 66 63 63 61 65 67 67 68 68 67 67 71 72 72 73 75 76 78 75 72 71 74 73 70 55 64 74 74 75 75 75
52 50 47 45 46 42 52 48 49 49 51 50 51 51 55 57 62 59 57 60 60 61 55 55 54 55 59 62 63 64 67 67 66 70 71 71 71 70 73 73 73 73 73 74 74 72 71 70 58 73 71 71 71 70
41 43 46 37 47 44 45 47 48 46 45 50 47 50 57 61 55 57 57 57 57 56 55 58 61 60 61 63 63 62 66 67 62 63 66 71 70 69 70 68 71 72 76 72 68 68 68 71 70 71 70 70 69 67
37 46 41 47 49 46 48 45 45 46 49 49 54 60 60 57 56 55 57 57 56 55 55 58 62 61 62 65 61 61 61 66 65 59 59 63 69 69 67 66 67 69 77 76 74 71 71 71 70 69 71 66 49 67
39 44 51 58 48 47 46 48 48 45 49 53 54 55 57 53 55 57 60 63 65 62 57 57 60 64 64 68 63 63 66 69 64 66 70 74 77 77 76 73 71 72 76 75 75 74 71 71 71 70 70 71 71 71
50 50 46 50 51 53 48 46 48 51 56 60 58 54 54 55 54 62 64 64 65 62 59 59 63 71 68 65 70 70 71 73 73 74 74 75 77 77 77 77 77 48 75 77 77 76 76 74 72 70 69 69 70 72
51 56 55 50 49 47 47 47 50 58 61 61 56 57 58 65 67 67 63 62 62 62 60 66 68 71 71 72 73 74 75 75 71 68 67 69 71 73 78 78 77 77 78 76 46 56 69 72 73 74 72 73 74 74
52 56 48 47 46 45 49 51 51 60 65 64 62 62 63 66 67 70 70 68 66 67 71 72 73 73 71 72 71 73 78 79 79 76 72 71 74 79 78 78 79 79 79 78 77 72 44 60 59 71 69 73 74 74
63 59 51 50 52 50 56 58 60 59 61 55 65 61 59 62 65 71 65 59 64 72 74 74 75 77 75 75 74 73 71 76 75 75 75 80 82 80 79 79 80 81 79 78 78 77 77 73 75 73 73 72 71 67
57 53 53 53 52 53 55 53 56 59 60 57 58 57 59 61 63 64 72 75 74 73 64 72 74 74 77 77 77 75 61 76 76 76 74 78 80 78 79 79 80 81 79 76 77 78 76 73 74 72 72 70 69 69
59 61 59 58 50 50 52 54 56 55 54 54 59 61 62 65 61 69 71 74 77 77 76 77 78 78 77 77 76 74 68 73 55 40 43 42 41 54 78 80 80 78 76 78 78 75 73 71 70 69 69 68 68 67
MSLP
1018.29 1018.10 1018.06 1018.13 1018.24 1018.25 1018.38 1018.43 1018.57 1018.61 1018.59 1018.71 1018.48 1018.46 1018.18 1018.11 1018.31 1018.00 1017.18 1017.57 1017.10 1014.52 1011.81 1010.85 1010.01 1009.15 1008.57 1008.36 1007.20 1007.60 1007.87 1007.59 1007.31 1007.12 1006.94 1007.51 1007.74 1008.25 1008.15 1007.87 1007.90 1007.76 1007.59 1007.24 1007.77 1007.67 1007.92 1008.64 1009.30 1009.00 1009.34 1009.59 1009.66 1010.16
1018.16 1017.90 1017.68 1017.90 1017.93 1017.92 1018.04 1018.21 1018.28 1018.33 1018.30 1018.37 1018.25 1018.03 1017.85 1018.03 1018.05 1017.97 1017.43 1017.43 1017.49 1016.82 1012.89 1011.99 1011.09 1010.59 1009.99 1009.51 1008.73 1008.10 1007.31 1006.81 1006.48 1006.51 1007.18 1007.35 1007.61 1007.98 1007.75 1007.31 1008.38 1007.95 1007.84 1007.59 1008.08 1007.91 1008.88 1009.08 1009.20 1009.47 1009.52 1009.68 1010.14 1010.60
1018.16 1017.69 1017.50 1017.62 1017.62 1017.61 1017.74 1017.96 1017.99 1018.01 1018.00 1018.01 1017.84 1017.66 1017.62 1017.71 1017.65 1017.63 1017.13 1017.39 1017.42 1016.02 1012.38 1010.64 1009.08 1008.59 1008.97 1009.24 1009.44 1008.73 1007.94 1007.54 1006.85 1007.74 1006.68 1006.85 1007.15 1007.28 1007.10 1007.24 1007.41 1008.09 1008.59 1008.14 1008.49 1008.50 1008.89 1009.22 1009.51 1009.70 1009.84 1009.98 1010.43 1010.97
1017.76 1017.49 1017.40 1017.35 1017.32 1017.32 1017.47 1017.70 1017.70 1017.71 1017.63 1017.56 1017.48 1017.41 1017.35 1017.26 1017.17 1017.26 1017.10 1016.91 1016.96 1015.66 1012.54 1008.53 1007.94 1008.00 1007.85 1008.01 1008.48 1008.51 1008.11 1008.06 1007.70 1007.88 1006.58 1006.57 1006.72 1007.65 1006.96 1007.30 1007.45 1007.66 1008.31 1007.86 1007.93 1008.58 1008.99 1009.19 1009.25 1009.60 1010.02 1010.43 1010.82 1011.21
1017.38 1017.34 1017.15 1017.19 1016.90 1016.91 1017.11 1017.29 1017.35 1017.39 1017.22 1017.18 1017.19 1017.13 1017.00 1016.86 1016.88 1016.88 1016.67 1016.59 1016.46 1016.03 1013.31 1009.71 1008.14 1007.03 1007.14 1007.33 1007.68 1008.16 1008.07 1008.02 1007.47 1007.01 1006.41 1006.31 1007.11 1007.75 1007.76 1007.64 1007.02 1007.54 1007.20 1007.31 1006.81 1007.33 1008.01 1007.88 1008.88 1009.30 1009.82 1010.37 1010.88 1011.25
1016.92 1017.00 1016.90 1016.73 1016.54 1016.59 1016.77 1016.87 1016.97 1016.98 1016.87 1016.88 1016.83 1016.76 1016.65 1016.58 1016.67 1016.63 1016.09 1015.34 1016.06 1016.38 1014.44 1010.18 1007.44 1006.96 1006.89 1006.91 1007.32 1007.53 1007.51 1007.71 1007.28 1006.18 1006.13 1007.05 1007.96 1008.14 1007.19 1006.87 1006.84 1006.81 1007.17 1007.14 1007.07 1007.57 1007.70 1008.14 1008.38 1008.97 1009.44 1010.14 1010.71 1011.14
1016.68 1016.54 1016.46 1016.33 1016.21 1016.28 1016.47 1016.50 1016.62 1016.60 1016.59 1016.56 1016.51 1016.42 1016.36 1016.33 1016.32 1015.94 1015.75 1015.57 1015.88 1016.21 1014.23 1010.51 1007.19 1006.87 1006.86 1006.75 1006.93 1007.09 1007.35 1007.19 1006.91 1006.21 1006.49 1006.79 1007.94 1008.54 1007.33 1006.70 1006.71 1006.73 1006.91 1007.28 1007.75 1007.88 1007.94 1008.10 1008.02 1008.60 1009.16 1009.92 1010.85 1011.07
1016.31 1016.22 1016.21 1015.97 1015.90 1016.02 1016.11 1016.15 1016.23 1016.28 1016.27 1016.28 1016.24 1016.13 1016.10 1016.05 1016.14 1015.61 1014.53 1015.76 1016.06 1015.49 1013.51 1010.55 1007.32 1006.40 1006.70 1005.74 1006.14 1006.48 1006.41 1006.79 1006.63 1006.05 1007.07 1006.95 1008.13 1007.93 1007.12 1006.64 1006.58 1006.57 1006.77 1007.16 1007.47 1007.70 1007.38 1007.70 1007.98 1008.42 1009.01 1009.75 1010.52 1010.93
1015.93 1015.97 1015.79 1015.72 1015.71 1015.64 1015.73 1015.88 1015.96 1015.99 1016.01 1016.05 1016.06 1015.98 1015.95 1015.86 1015.34 1013.85 1014.69 1015.60 1015.52 1014.77 1012.23 1009.82 1007.09 1005.55 1006.23 1005.52 1005.56 1006.12 1005.74 1005.78 1006.71 1006.17 1006.44 1007.08 1007.00 1007.38 1006.55 1006.25 1006.04 1006.33 1006.56 1006.58 1006.95 1007.49 1007.72 1007.75 1007.91 1008.31 1008.85 1009.49 1009.97 1010.50
1015.63 1015.61 1015.50 1015.53 1015.42 1015.35 1015.49 1015.63 1015.70 1015.66 1015.71 1015.87 1016.00 1015.74 1015.11 1014.48 1014.55 1014.83 1014.96 1014.38 1014.46 1012.86 1012.05 1009.63 1007.59 1006.24 1006.15 1005.42 1005.22 1005.47 1005.58 1005.29 1005.76 1005.76 1006.80 1006.49 1005.77 1005.93 1005.95 1005.78 1005.79 1005.92 1006.28 1006.34 1006.63 1007.15 1007.48 1007.52 1007.68 1008.15 1008.62 1009.07 1009.59 1009.97
1015.33 1015.28 1015.24 1015.19 1015.10 1015.10 1015.25 1015.35 1015.39 1015.42 1015.48 1015.48 1015.35 1014.97 1014.66 1014.76 1014.31 1012.97 1011.88 1011.55 1011.09 1010.22 1009.27 1008.18 1007.30 1006.44 1006.44 1005.61 1005.16 1005.40 1005.28 1005.43 1005.39 1005.32 1005.82 1004.94 1004.44 1004.29 1004.77 1005.11 1005.37 1005.65 1005.92 1006.15 1006.34 1006.61 1007.02 1007.26 1007.68 1008.05 1008.42 1008.86 1009.41 1009.82
1014.97 1014.92 1014.87 1014.90 1014.85 1014.85 1014.99 1015.10 1015.17 1015.08 1014.79 1015.08 1015.13 1014.98 1014.77 1014.27 1013.41 1011.81 1010.08 1009.40 1008.85 1007.67 1007.34 1007.10 1006.83 1006.71 1006.59 1006.61 1005.54 1006.10 1005.38 1005.66 1005.05 1005.59 1005.24 1004.08 1003.71 1003.93 1004.22 1004.49 1004.74 1005.14 1005.56 1005.79 1006.19 1006.47 1006.81 1007.22 1007.60 1007.98 1008.43 1008.96 1009.37 1009.82
1014.65 1014.62 1014.64 1014.64 1014.62 1014.64 1014.75 1014.87 1014.93 1014.95 1015.00 1014.94 1014.77 1013.92 1013.05 1012.62 1011.71 1010.12 1008.40 1007.35 1006.83 1006.67 1006.64 1006.69 1006.73 1006.47 1007.01 1006.88 1006.37 1006.00 1005.63 1005.46 1005.58 1004.89 1004.07 1003.46 1003.39 1003.79 1004.14 1004.40 1004.58 1004.86 1005.22 1005.57 1006.07 1006.60 1007.02 1007.44 1007.85 1008.15 1008.58 1008.99 1009.34 1009.75
1014.32 1014.32 1014.32 1014.30 1014.32 1014.40 1014.53 1014.64 1014.73 1014.83 1014.87 1014.29 1013.30 1012.37 1011.14 1009.95 1008.75 1007.77 1006.83 1006.07 1006.47 1006.60 1006.65 1006.60 1006.41 1006.28 1006.07 1006.54 1006.11 1005.81 1006.00 1005.80 1004.82 1003.79 1003.09 1002.92 1003.02 1003.51 1003.72 1004.13 1004.39 1004.70 1005.03 1005.42 1005.94 1006.56 1007.00 1007.51 1007.92 1008.39 1008.65 1009.06 1009.51 1009.95
1014.01 1013.98 1013.88 1013.88 1013.92 1014.06 1014.24 1014.35 1014.47 1014.30 1014.19 1013.44 1012.43 1010.90 1009.36 1008.21 1008.04 1007.80 1007.44 1007.20 1007.00 1006.95 1006.94 1006.94 1006.64 1006.47 1006.23 1006.04 1005.94 1006.10 1006.01 1005.04 1003.81 1002.98 1002.42 1002.63 1003.21 1003.46 1003.68 1004.03 1004.23 1004.47 1004.94 1005.34 1005.85 1006.36 1006.84 1007.31 1007.76 1008.29 1008.60 1008.96 1009.40 1009.85
1013.70 1013.66 1013.37 1013.38 1013.52 1013.73 1014.03 1014.32 1014.22 1013.71 1013.39 1012.72 1011.69 1010.29 1008.97 1008.40 1007.51 1007.47 1007.35 1007.25 1007.20 1007.12 1007.34 1007.02 1006.19 1005.96 1005.37 1005.25 1005.10 1004.61 1004.42 1003.83 1003.33 1002.60 1002.70 1003.20 1003.56 1003.70 1003.95 1004.04 1004.19 1004.39 1004.89 1005.25 1005.76 1006.20 1006.64 1007.14 1007.54 1007.94 1008.47 1008.79 1009.27 1009.66
1013.57 1013.12 1013.00 1013.22 1013.51 1013.71 1013.89 1013.81 1013.50 1013.07 1012.52 1011.64 1010.88 1009.61 1009.18 1008.77 1008.11 1007.65 1007.71 1007.92 1007.84 1007.67 1007.22 1006.95 1006.13 1005.15 1004.57 1004.13 1003.91 1003.38 1003.23 1003.14 1003.11 1002.90 1003.19 1003.80 1004.04 1004.22 1004.23 1004.29 1004.35 1004.59 1004.92 1005.26 1005.75 1006.20 1006.59 1007.05 1007.41 1007.81 1008.20 1008.62 1008.87 1009.40
1012.95 1012.56 1012.98 1013.24 1013.49 1013.75 1013.79 1013.53 1013.15 1012.59 1011.75 1010.96 1010.23 1008.79 1008.72 1008.49 1008.19 1008.12 1008.05 1008.22 1008.14 1007.68 1007.51 1006.69 1006.35 1005.48 1004.25 1003.57 1003.26 1003.32 1003.33 1003.38 1003.44 1003.68 1003.78 1004.10 1004.35 1004.51 1004.47 1004.46 1004.65 1004.81 1005.02 1005.32 1005.72 1006.10 1006.53 1006.90 1007.30 1007.54 1007.90 1008.23 1008.65 1008.99
1012.53 1012.70 1013.02 1013.23 1013.27 1013.23 1013.18 1013.23 1012.86 1011.77 1010.76 1009.78 1009.24 1008.72 1008.58 1008.26 1008.01 1007.99 1007.96 1007.97 1008.13 1008.33 1008.05 1007.11 1006.10 1004.76 1004.38 1004.29 1004.11 1004.08 1004.13 1004.09 1003.89 1004.00 1004.10 1004.25 1004.56 1004.63 1004.66 1004.57 1004.60 1004.71 1005.00 1005.37 1005.70 1005.88 1006.16 1006.65 1006.65 1006.75 1006.93 1007.33 1007.81 1007.93
1012.84 1012.84 1012.93 1013.18 1013.32 1013.06 1012.79 1012.40 1012.20 1011.10 1009.67 1008.89 1008.64 1008.27 1007.97 1007.72 1007.43 1007.31 1007.39 1007.57 1007.69 1007.86 1007.41 1006.27 1005.20 1004.35 1004.38 1004.16 1004.60 1004.74 1004.90 1004.90 1004.59 1004.06 1003.91 1004.27 1004.39 1004.63 1004.54 1004.25 1004.14 1004.45 1004.78 1005.27 1005.65 1005.92 1006.05 1006.44 1006.62 1006.72 1006.71 1006.81 1007.06 1007.30
1012.60 1012.56 1012.92 1013.05 1013.15 1012.94 1012.32 1011.61 1011.32 1010.81 1009.50 1009.09 1008.43 1008.06 1008.05 1007.97 1007.30 1006.73 1006.47 1006.72 1006.85 1006.41 1005.76 1005.18 1004.90 1004.78 1004.77 1005.00 1005.41 1005.38 1005.50 1005.48 1005.12 1005.08 1004.90 1004.54 1004.83 1004.42 1004.44 1004.37 1004.32 1004.15 1004.26 1004.67 1004.93 1005.46 1006.20 1005.86 1005.91 1006.20 1006.78 1007.07 1007.28 1007.59
1012.30 1012.56 1012.72 1012.88 1012.65 1012.32 1011.65 1010.37 1009.97 1009.56 1009.38 1008.32 1008.17 1007.83 1007.53 1006.93 1006.15 1005.66 1005.92 1006.13 1005.51 1005.02 1004.81 1004.76 1004.74 1004.90 1004.97 1005.10 1005.28 1005.69 1005.65 1006.01 1005.92 1005.79 1005.90 1005.09 1004.75 1004.59 1004.40 1004.21 1004.09 1003.96 1004.25 1004.81 1005.31 1005.54 1006.07 1006.59 1007.05 1007.05 1007.23 1007.27 1007.87 1007.71
1012.44 1012.46 1012.36 1012.37 1011.97 1011.54 1010.59 1009.99 1009.71 1008.81 1008.60 1007.95 1007.33 1006.78 1006.17 1005.05 1004.45 1005.13 1004.94 1004.22 1003.88 1003.83 1004.20 1004.59 1004.92 1005.19 1005.37 1005.33 1005.39 1005.49 1005.69 1005.70 1005.77 1005.89 1005.20 1005.33 1005.59 1005.61 1005.42 1005.25 1004.84 1004.85 1005.34 1005.96 1006.17 1006.45 1007.05 1007.72 1007.76 1007.47 1007.74 1007.76 1007.85 1007.85
1012.30 1012.16 1011.87 1011.66 1011.54 1010.71 1010.19 1009.59 1009.45 1008.84 1008.06 1007.36 1006.53 1005.43 1004.61 1004.09 1004.21 1004.07 1003.49 1003.49 1003.95 1004.57 1005.01 1005.11 1005.29 1005.17 1005.10 1005.00 1004.90 1005.01 1005.19 1005.54 1005.67 1005.46 1005.37 1005.56 1005.67 1006.06 1005.98 1005.83 1005.68 1005.83 1006.09 1006.36 1006.58 1006.96 1007.43 1007.72 1008.07 1007.74 1008.02 1008.08 1008.20 1008.24
1012.35 1011.89 1011.44 1010.86 1010.66 1010.38 1009.56 1008.79 1008.46 1008.20 1007.16 1006.48 1006.05 1004.98 1003.76 1003.68 1003.35 1002.82 1002.78 1003.69 1004.11 1004.41 1004.60 1004.48 1004.23 1004.18 1003.93 1003.97 1004.30 1004.78 1005.09 1005.25 1005.56 1005.68 1005.89 1006.01 1006.18 1006.46 1006.30 1006.20 1006.26 1006.76 1006.79 1006.83 1007.22 1007.54 1007.72 1007.81 1007.97 1008.08 1008.18 1008.23 1008.52 1008.58
1011.47 1010.85 1010.60 1009.78 1009.42 1009.47 1008.61 1008.13 1007.83 1007.32 1006.58 1005.62 1004.61 1004.01 1003.51 1003.01 1002.40 1002.26 1003.01 1003.63 1004.14 1004.35 1004.52 1004.47 1004.04 1003.89 1003.82 1003.78 1004.29 1004.62 1005.08 1005.20 1005.56 1005.83 1006.19 1006.50 1006.11 1005.94 1006.04 1006.12 1006.49 1007.01 1006.96 1006.93 1007.12 1007.43 1007.69 1007.87 1008.08 1008.19 1008.17 1008.50 1009.08 1008.33
1010.65 1009.80 1009.41 1009.03 1009.23 1009.07 1008.50 1008.00 1007.73 1007.23 1005.69 1004.19 1003.98 1003.53 1002.99 1002.35 1002.06 1002.85 1003.27 1003.95 1004.09 1004.45 1004.50 1004.70 1004.39 1003.74 1003.77 1003.78 1004.53 1004.92 1005.17 1005.36 1005.55 1005.59 1005.85 1005.78 1005.65 1005.59 1005.57 1005.64 1006.20 1007.01 1007.23 1007.33 1007.42 1007.58 1007.82 1008.04 1008.20 1008.36 1008.36 1008.33 1008.27 1008.25
1009.68 1009.15 1008.48 1008.24 1008.27 1008.25 1007.90 1007.64 1006.77 1005.32 1004.30 1003.85 1003.60 1002.90 1002.51 1002.44 1002.93 1003.25 1003.58 1004.16 1004.42 1004.60 1004.79 1004.60 1004.36 1003.83 1003.94 1004.28 1004.44 1004.80 1004.97 1005.21 1005.62 1005.69 1005.78 1005.89 1005.89 1006.01 1006.23 1006.50 1006.95 1007.66 1007.23 1007.32 1007.58 1007.80 1007.99 1008.22 1008.44 1008.62 1008.60 1008.41 1008.34 1008.36
1008.77 1008.06 1007.96 1007.74 1007.90 1007.94 1007.48 1006.97 1006.10 1004.88 1004.38 1003.78 1003.48 1003.12 1003.00 1003.10 1003.50 1003.60 1004.19 1004.34 1004.58 1004.49 1004.45 1003.98 1003.89 1003.98 1004.12 1004.34 1004.51 1004.67 1004.77 1004.87 1005.07 1005.20 1005.26 1005.45 1005.68 1006.10 1006.26 1006.40 1006.97 1007.09 1007.12 1007.54 1008.51 1008.58 1008.38 1008.67 1008.66 1008.67 1008.44 1008.16 1008.11 1008.20
1007.46 1007.74 1007.62 1007.39 1007.13 1006.90 1006.70 1006.41 1005.75 1005.06 1004.57 1004.30 1004.13 1003.78 1003.69 1003.67 1004.03 1004.20 1003.79 1004.06 1004.22 1004.03 1003.80 1003.71 1003.59 1003.72 1003.93 1004.14 1004.45 1004.69 1004.61 1004.56 1004.49 1004.87 1005.11 1005.19 1005.30 1005.60 1005.92 1006.15 1006.37 1006.57 1006.85 1007.02 1007.27 1008.12 1009.13 1008.96 1009.03 1008.65 1008.60 1007.85 1007.53 1007.47
1006.51 1006.55 1006.80 1006.66 1006.18 1006.27 1005.76 1005.52 1005.16 1005.03 1004.61 1004.57 1004.14 1003.87 1003.74 1003.92 1004.18 1004.16 1004.45 1004.75 1004.71 1003.97 1003.76 1003.52 1003.57 1003.74 1003.91 1004.08 1004.33 1004.54 1004.97 1005.52 1005.81 1005.94 1006.53 1005.83 1005.58 1005.59 1005.75 1006.01 1006.19 1006.33 1006.57 1006.71 1006.91 1007.17 1007.43 1007.84 1007.70 1007.59 1007.45 1007.34 1007.31 1007.66
1005.83 1005.79 1005.60 1005.18 1005.50 1005.77 1005.56 1005.39 1004.95 1004.56 1004.37 1004.29 1004.04 1004.10 1004.00 1003.69 1003.54 1004.19 1004.36 1003.99 1003.82 1003.71 1003.94 1003.84 1003.96 1004.28 1004.58 1004.88 1005.19 1005.57 1005.65 1005.85 1006.09 1006.22 1006.35 1006.10 1006.07 1006.16 1006.04 1006.13 1006.15 1006.16 1006.44 1006.70 1006.84 1006.99 1007.20 1007.43 1007.41 1007.49 1007.34 1007.34 1007.60 1007.66
1004.68 1004.52 1004.63 1004.93 1005.50 1005.51 1005.42 1005.12 1004.66 1004.54 1004.44 1004.14 1003.94 1003.89 1003.70 1003.35 1003.47 1003.89 1004.59 1004.36 1003.66 1003.59 1003.86 1003.97 1004.29 1004.80 1005.14 1005.32 1005.78 1006.14 1006.42 1006.94 1007.51 1007.56 1007.58 1007.52 1007.38 1006.89 1006.30 1006.22 1006.34 1006.44 1006.66 1006.62 1006.79 1007.14 1007.49 1007.70 1007.81 1008.00 1008.06 1008.15 1008.23 1008.32
Wind_Speed
8 7 7 6 7 8 8 7 6 7 7 8 7 8 9 6 4 4 1 3 4 5 11 8 10 8 5 4 7 7 7 4 6 6 4 4 4 6 5 1 4 6 6 6 5 5 8 9 7 7 6 4 4 3
9 7 5 7 7 7 7 7 7 7 7 8 8 8 8 8 5 6 3 2 3 5 10 12 14 16 15 9 6 5 5 11 6 6 2 2 4 4 7 6 5 6 5 6 5 6 5 7 5 4 2 6 4 4
9 7 5 6 7 7 7 8 7 7 8 8 8 9 8 7 7 9 3 4 3 5 10 13 12 17 17 19 12 5 2 4 4 7 2 2 4 4 5 7 5 7 3 5 4 9 6 7 5 4 4 7 6 7
9 7 7 7 6 6 7 8 8 7 8 8 8 8 9 10 8 9 4 4 3 5 6 2 3 7 9 13 17 16 7 3 2 5 4 5 6 3 3 3 6 4 9 7 6 4 5 7 8 10 8 8 8 7
7 8 8 8 6 7 7 8 8 8 8 8 8 8 9 8 6 7 4 5 6 5 6 7 16 10 11 12 14 15 13 8 5 6 5 6 3 5 1 4 8 7 7 8 6 8 8 6 13 13 13 12 10 8
8 10 10 8 7 7 8 8 7 8 8 8 8 8 8 6 6 3 3 6 8 4 6 5 5 3 3 9 12 12 11 8 5 5 2 3 3 4 5 9 10 11 10 10 5 2 7 2 14 16 14 13 11 9
8 7 7 8 6 7 8 8 8 7 7 8 7 8 6 6 5 4 3 4 4 6 5 5 4 5 4 11 6 7 8 5 6 3 5 3 4 4 7 11 8 6 9 8 7 6 6 9 9 14 13 13 11 9
7 7 8 7 7 8 8 7 6 6 7 7 7 6 6 5 5 5 7 10 6 4 4 5 3 5 6 7 6 4 7 7 5 1 2 4 3 4 5 9 13 12 7 10 11 10 6 2 8 14 13 13 13 11
7 8 7 7 8 8 7 6 6 6 5 5 5 3 0 2 3 0 15 14 6 5 5 3 4 5 4 2 4 5 5 7 3 5 4 3 3 5 8 9 9 10 10 11 11 9 9 8 11 14 15 15 14 12
8 7 7 7 8 7 6 6 6 5 4 4 3 3 3 2 18 17 8 7 8 6 5 5 3 3 5 6 5 6 4 4 6 5 4 6 11 13 14 10 6 8 11 8 8 10 9 9 11 13 14 13 12 10
8 8 8 7 7 6 6 5 4 3 4 3 4 2 4 6 4 4 5 6 6 5 6 5 6 3 2 7 7 3 5 5 6 4 5 6 7 8 12 16 15 13 11 12 12 11 11 10 10 12 12 10 9 9
8 8 8 7 7 6 6 5 3 3 1 2 2 1 2 4 4 6 5 5 6 5 6 5 6 6 3 3 3 4 5 5 6 6 5 5 5 5 6 7 9 12 15 14 13 10 8 7 10 10 9 9 9 9
8 7 7 7 7 7 6 5 5 5 3 1 3 4 5 4 4 6 7 5 4 5 4 5 6 5 4 4 1 4 7 7 2 5 8 7 4 4 5 4 6 7 11 14 13 10 8 9 9 9 7 7 8 8
8 8 8 8 8 6 6 5 5 3 2 3 4 4 6 6 6 6 6 2 6 2 2 2 3 6 3 5 2 5 2 2 6 10 13 8 5 7 5 5 6 8 11 13 13 12 11 12 10 8 7 7 7 7
8 8 9 8 9 7 6 4 6 4 2 3 4 5 6 3 0 0 1 3 4 1 0 3 3 3 4 4 3 3 5 6 6 7 5 3 1 3 6 7 8 9 10 11 12 12 12 12 10 9 9 9 8 7
7 4 6 4 7 8 8 7 5 3 3 3 4 4 4 6 6 5 5 4 1 1 1 3 3 5 7 4 7 8 6 5 4 5 5 2 3 1 4 6 6 8 11 11 11 11 11 11 10 10 10 9 9 8
5 3 4 7 6 8 7 3 3 5 3 4 5 7 6 5 3 1 1 1 1 2 4 3 5 6 2 7 10 6 8 4 4 3 6 5 5 5 0 5 7 9 11 11 10 10 10 10 9 9 10 10 9 9
4 4 5 10 9 5 2 3 2 3 5 6 4 6 7 6 5 4 3 3 3 2 3 3 2 4 5 6 8 9 5 3 5 3 4 3 4 5 2 4 6 7 9 10 10 10 10 10 10 9 10 9 9 9
2 3 7 11 3 2 3 3 3 3 6 5 7 7 5 6 6 5 4 4 4 3 4 3 6 6 7 1 1 2 2 1 4 4 4 4 4 5 4 4 6 9 10 10 10 8 8 10 8 7 7 7 8 8
6 6 9 9 3 1 4 4 2 5 4 1 5 7 7 6 5 7 7 8 7 3 6 6 8 7 3 4 2 2 2 3 4 4 3 4 3 3 3 4 5 8 9 9 7 2 6 6 6 7 7 6 7 8
4 5 7 4 2 2 3 2 4 4 4 3 5 2 2 3 6 8 8 8 9 6 8 8 7 7 6 4 3 1 1 2 4 5 4 3 4 2 3 4 6 7 7 7 7 7 4 5 4 3 4 6 6 6
2 4 2 3 2 3 4 4 4 1 4 4 3 6 4 4 8 10 5 7 7 10 9 9 6 6 6 8 8 10 5 4 1 2 6 4 2 2 3 3 5 5 5 4 3 2 3 3 4 2 3 2 1 4
6 2 3 3 4 4 4 2 4 4 3 3 2 3 4 4 3 9 6 8 8 6 5 6 4 6 7 9 9 10 10 7 3 4 4 4 3 1 2 2 4 5 6 5 4 5 5 1 4 1 3 1 1 2
0 3 3 3 4 3 3 4 2 3 4 4 3 4 4 4 6 5 5 3 3 3 2 3 3 5 6 9 7 7 9 6 4 3 4 3 2 3 2 4 6 6 6 5 5 5 5 5 1 4 4 3 3 3
1 3 4 3 4 4 5 4 4 4 4 2 2 5 3 3 4 5 2 3 1 2 1 5 7 6 7 6 5 5 9 6 4 2 4 1 3 3 3 5 7 6 3 5 6 7 6 6 6 5 6 6 5 3
1 3 3 2 4 5 4 2 2 3 3 5 7 3 2 3 4 1 3 3 1 1 2 3 2 2 3 3 6 6 6 4 3 3 3 5 5 5 6 6 7 5 3 6 6 7 7 6 6 3 4 5 5 6
3 4 4 4 2 2 3 2 3 3 6 3 3 3 3 3 2 3 3 4 2 2 2 2 2 1 5 7 7 3 4 5 4 4 6 6 4 5 5 5 8 7 6 6 6 6 6 5 5 5 5 4 5 6
4 4 5 1 4 4 4 2 5 5 2 1 2 2 1 4 4 3 4 3 2 3 2 2 3 3 5 6 7 6 7 8 10 9 7 6 6 6 7 7 7 3 3 4 5 4 3 3 4 4 4 5 4 4
5 3 4 6 2 2 3 3 4 2 4 3 4 3 3 4 3 3 3 2 3 3 2 5 7 8 8 8 8 8 8 8 10 12 12 9 9 7 6 6 7 6 4 6 5 7 3 2 3 3 3 4 3 3
4 5 3 3 3 5 4 4 3 5 4 3 3 1 2 4 4 0 3 5 3 4 7 8 9 9 10 10 9 7 5 4 4 6 7 7 8 8 6 5 4 4 4 4 5 7 2 5 5 6 6 5 4 3
1 4 4 4 3 2 4 4 4 2 2 1 2 1 3 3 3 3 6 2 4 5 7 8 9 9 8 8 7 7 7 5 6 5 5 4 1 3 5 5 4 4 4 5 4 5 4 5 5 5 6 7 5 5
4 5 5 4 3 2 3 2 2 2 3 2 2 2 2 3 8 4 3 5 7 6 5 7 7 7 7 7 7 8 8 6 4 4 3 2 2 0 4 6 5 4 3 4 4 3 2 4 5 6 6 5 6 6
5 5 4 1 2 3 1 3 4 4 3 2 7 9 7 3 6 4 3 3 3 7 6 5 7 7 8 9 9 8 8 8 8 7 5 6 9 9 1 4 4 4 5 3 3 6 5 6 6 6 6 6 6 7
Wind_Direction
290 285 289 281 251 226 224 232 242 259 272 280 291 293 303 315 271 237 354 181 261 276 283 263 258 256 226 238 223 128 151 198 180 216 242 161 250 184 245 360 230 232 235 205 242 262 250 135 146 247 68 122 113 90
308 288 296 281 260 232 223 240 245 256 268 273 281 290 291 285 252 217 254 148 257 248 297 317 283 281 270 272 309 199 358 162 180 211 210 156 201 182 245 230 180 236 261 347 281 40 86 168 46 100 203 136 115 115
300 314 308 288 274 232 233 247 248 260 268 275 284 287 290 301 235 213 266 159 214 262 263 237 243 236 224 230 239 279 182 275 102 327 141 194 228 245 215 243 250 179 196 246 218 161 166 183 182 188 175 133 116 108
295 306 299 287 267 228 239 255 256 265 274 281 287 294 291 292 237 219 212 198 256 287 278 331 161 225 216 210 215 226 254 357 102 243 190 225 243 209 260 12 257 5 158 208 224 154 176 203 203 178 170 148 129 121
291 284 283 281 275 239 246 256 259 273 279 285 287 289 290 290 245 249 234 210 231 294 327 307 307 262 208 207 213 215 226 227 204 201 213 215 79 202 209 269 250 180 219 217 236 153 217 175 190 186 178 172 165 149
276 278 274 271 275 239 244 254 259 270 280 285 288 292 290 269 249 205 263 193 195 201 268 277 13 205 203 204 198 201 203 206 240 242 158 111 77 255 261 259 247 230 238 247 281 174 197 133 179 191 187 180 175 168
278 281 287 269 263 241 243 250 255 270 280 285 289 288 287 256 217 220 331 53 156 172 247 270 227 125 147 143 148 168 184 194 253 174 219 177 178 232 264 259 249 227 231 206 196 163 185 197 186 188 191 181 172 176
290 282 274 276 258 242 242 249 265 274 279 284 288 295 285 250 249 270 216 147 152 233 251 269 242 179 192 178 145 182 162 189 191 132 164 230 133 241 253 250 241 241 210 196 199 217 265 197 220 180 190 173 185 182
277 278 286 292 260 235 240 249 264 274 269 278 294 267 228 219 214 120 115 144 194 289 294 249 276 146 187 121 109 164 217 194 101 224 220 207 185 219 231 241 226 206 210 220 206 203 207 219 191 179 184 183 196 190
273 270 279 285 290 242 232 249 263 269 277 262 221 214 220 235 109 136 174 164 191 200 220 260 293 229 240 178 174 148 209 196 201 193 117 233 236 238 238 233 231 203 207 212 179 186 193 203 191 186 191 193 202 200
266 271 270 276 294 231 237 245 263 279 197 193 208 215 65 138 218 242 188 208 178 214 202 231 254 247 120 214 173 241 174 180 234 186 235 244 250 237 231 234 232 228 211 200 201 198 200 206 195 192 195 198 205 216
264 266 266 267 278 226 234 232 230 226 239 1 348 308 208 198 227 234 198 183 215 226 165 222 213 228 119 285 221 186 206 191 238 130 230 252 252 256 218 227 217 214 215 208 206 208 189 200 190 195 191 196 211 205
256 259 261 260 258 231 227 229 231 277 282 237 209 230 191 165 206 229 193 194 200 184 170 183 186 198 158 234 191 205 195 214 108 224 243 254 270 204 211 221 201 188 198 199 194 195 186 180 178 178 182 194 187 187
261 267 263 258 238 223 225 230 241 190 213 230 217 224 227 184 220 207 223 233 79 199 103 229 175 202 151 187 183 199 108 226 234 229 243 262 214 231 216 194 193 178 181 181 175 175 175 173 173 177 192 172 180 188
271 268 261 241 225 220 222 242 204 192 235 235 251 239 224 239 300 299 292 226 159 265 324 170 209 220 185 190 217 134 179 228 222 230 245 50 5 236 212 190 188 160 167 169 165 170 174 174 172 180 186 177 179 177
269 271 219 214 207 215 199 184 196 225 219 257 238 269 238 256 220 206 228 235 56 238 220 245 189 195 191 210 197 200 191 206 186 231 68 53 45 89 190 182 177 159 166 164 167 171 171 173 181 176 174 182 183 187
248 248 146 184 168 147 169 226 205 220 253 219 233 242 266 301 286 278 290 218 278 265 230 209 230 187 198 213 217 214 214 196 184 229 40 33 25 14 121 193 172 164 167 166 165 167 172 174 174 173 185 194 203 195
244 136 154 152 157 145 181 233 235 242 241 228 244 242 209 256 261 255 254 199 261 220 248 251 323 241 226 226 220 222 222 324 320 352 337 14 359 339 305 197 195 189 177 173 172 173 174 177 185 199 203 205 205 219
233 140 171 173 185 203 177 197 241 253 234 256 231 256 248 256 244 254 245 218 239 293 287 235 240 226 229 215 2 92 69 337 323 336 316 310 309 297 275 235 216 191 183 180 176 185 184 195 207 207 207 197 220 223
241 219 187 181 227 194 209 191 234 269 265 267 247 249 237 255 255 235 228 226 222 211 217 225 237 253 222 294 339 331 356 354 320 316 31 20 358 282 243 198 188 167 172 164 179 225 183 201 210 225 233 234 235 233
149 160 147 170 193 250 284 185 215 226 260 268 283 263 290 291 257 233 222 197 207 219 229 233 248 248 266 255 287 260 73 317 348 332 345 5 12 12 144 146 170 161 163 174 184 164 236 231 245 217 234 240 242 247
121 155 125 174 219 225 266 231 267 232 230 245 231 191 210 222 221 209 163 198 223 223 225 243 246 263 268 245 251 227 242 185 240 242 237 123 32 99 105 124 160 127 99 76 63 39 71 40 353 314 280 264 249 264
152 184 171 189 226 208 257 193 249 220 236 261 259 231 247 232 162 138 207 213 224 224 249 265 272 271 252 269 273 236 214 216 211 215 115 83 79 75 120 100 89 106 109 92 87 84 89 62 108 63 86 210 303 271
271 192 209 204 205 244 265 209 232 260 235 227 228 249 217 196 167 207 249 187 169 153 179 223 229 242 237 221 219 213 200 193 193 125 98 116 145 94 69 92 80 73 85 99 96 90 82 88 200 94 68 62 43 20
175 225 204 251 198 231 227 226 199 226 244 244 238 250 219 190 219 215 175 106 115 223 222 250 210 195 203 178 168 177 172 181 172 131 85 17 100 145 140 101 76 69 85 100 108 116 115 109 107 99 81 54 42 81
214 207 213 238 180 220 222 254 328 295 273 228 221 284 257 237 244 85 81 95 77 298 313 358 26 143 177 162 155 148 149 146 125 119 123 182 206 162 146 134 147 129 128 125 118 112 104 94 85 64 81 116 159 316
245 228 230 207 200 298 280 243 251 252 261 220 182 221 233 231 106 75 81 82 114 118 295 309 265 178 133 123 113 121 130 165 156 159 156 180 159 147 153 119 102 113 125 127 129 117 108 96 75 60 42 27 23 7
254 254 248 130 229 234 290 252 248 238 242 257 260 243 5 26 53 47 35 38 30 80 86 72 178 151 104 120 123 124 136 122 127 131 126 121 123 110 108 109 108 27 122 103 112 120 101 76 65 44 17 1 359 5
235 224 245 253 252 248 247 244 278 318 337 318 328 23 54 64 44 42 50 22 98 101 129 111 100 108 109 114 122 122 134 142 144 148 141 138 146 144 146 139 151 173 168 150 89 25 40 350 349 344 329 312 335 308
223 169 230 249 225 214 229 211 246 295 301 350 324 147 116 98 77 327 109 120 112 133 110 119 125 120 121 120 116 109 87 90 112 130 138 143 150 151 157 157 156 167 161 175 157 145 133 224 191 223 228 256 264 304
252 190 210 235 255 171 245 225 241 203 256 77 270 324 104 115 102 71 88 133 145 151 130 114 105 105 109 110 117 128 108 77 69 55 12 348 297 189 191 193 204 200 194 217 220 217 196 220 262 293 301 296 303 281
204 213 225 261 69 286 338 330 318 207 164 201 145 137 96 160 114 123 146 171 153 132 106 128 117 97 89 93 86 74 54 84 75 53 22 6 61 25 223 216 217 222 195 214 223 248 252 297 323 345 339 2 6 5
233 224 238 355 40 307 360 294 44 58 27 106 111 131 162 136 105 94 131 243 220 145 152 127 105 108 105 98 93 91 73 75 74 56 42 15 358 343 310 120 120 137 162 168 98 97 83 64 71 67 73 69 58 44